Temperature
6 6 7 7 7 7 6 5 5 6 6 6 6 6 6 6 6 6 5 5 5 5 5 5 5 5 5 5 6 6 6 6 6 6 6 6 6 6 6 6 6 6 6 6
6 6 6 6 6 6 6 6 6 6 6 6 6 6 6 6 6 5 5 5 5 5 5 5 5 5 5 5 5 5 5 5 5 5 5 5 5 5 5 6 6 6 6 6
5 5 6 6 6 6 6 6 6 6 6 6 5 5 5 5 5 5 5 5 5 5 4 4 4 4 4 4 4 5 5 5 5 4 4 5 5 5 5 5 5 5 5 5
4 5 6 7 7 6 6 6 6 6 6 5 6 6 6 6 6 5 5 5 5 4 4 4 4 4 4 4 4 4 4 4 4 4 4 4 4 4 4 4 4 4 4 4
3 4 5 6 6 6 6 6 6 5 5 5 6 5 5 5 6 6 5 5 5 4 4 4 4 4 4 4 4 3 3 4 4 4 4 4 4 4 4 4 4 4 4 4
3 5 6 7 7 7 6 6 6 5 5 4 5 4 4 5 5 5 5 5 4 4 4 4 4 3 3 3 3 3 3 3 3 3 3 3 3 3 3 3 3 3 3 3
3 4 4 6 6 6 6 7 7 6 6 5 4 5 6 6 5 5 5 4 4 4 4 3 3 3 3 3 3 3 3 3 3 3 3 3 3 3 3 3 3 3 3 2
3 4 5 5 5 5 6 7 7 6 6 6 6 6 6 5 5 5 4 4 4 4 3 3 3 3 3 3 2 2 2 2 2 2 2 2 2 2 2 2 2 2 2 2
3 5 6 6 7 8 7 7 7 7 7 6 6 5 5 5 5 4 4 4 3 3 3 3 2 2 2 2 2 2 2 2 2 2 2 2 2 2 2 1 1 1 1 1
3 3 5 6 7 7 7 7 7 7 7 6 6 5 5 5 4 4 4 3 3 3 3 2 2 2 2 2 2 2 2 2 1 1 1 1 1 1 1 1 1 1 1 0
3 4 5 6 7 8 7 7 7 6 6 6 6 5 5 4 4 4 3 3 3 2 2 2 2 2 2 2 1 1 1 1 1 1 1 1 1 1 0 0 0 0 0 -0
4 5 5 7 8 8 7 7 6 6 6 5 5 5 4 4 4 3 3 3 2 2 2 2 1 1 1 1 1 1 1 1 0 0 0 0 0 0 0 -0 -0 -0 -0 -0
8 8 8 8 8 7 7 7 6 6 5 5 5 4 4 4 3 3 2 2 2 2 1 1 1 1 1 1 1 0 0 0 0 -0 -0 -0 -0 -0 -0 -0 -0 -0 -0 -1
7 7 6 7 7 7 6 6 6 5 5 4 4 4 3 3 3 2 2 2 2 1 1 1 1 1 0 0 0 0 0 -0 -0 -0 -0 -1 -1 -1 -1 -1 -1 -1 -1 -1
7 7 6 6 6 6 5 5 5 4 4 4 4 3 3 3 2 2 2 1 1 1 1 0 0 0 0 -0 -0 -0 -0 -0 -1 -1 -1 -1 -1 -1 -1 -1 -1 -1 -1 -1
6 6 6 5 5 5 5 4 4 4 4 4 3 3 3 2 2 2 1 1 1 1 0 0 -0 -0 -0 -0 -0 -1 -1 -1 -1 -1 -1 -1 -1 -1 -2 -2 -2 -2 -2 -2
4 4 4 4 5 5 4 4 4 4 4 3 3 3 2 2 1 1 1 1 0 0 0 -0 -0 -1 -1 -1 -1 -1 -1 -1 -1 -1 -2 -2 -2 -2 -2 -2 -2 -2 -2 -2
5 5 5 5 5 5 4 4 4 3 3 3 3 2 2 2 1 1 1 0 -0 -0 -0 -1 -1 -1 -1 -1 -1 -1 -1 -1 -2 -2 -2 -2 -2 -2 -3 -3 -3 -3 -3 -3
5 5 5 5 5 4 4 4 4 3 3 3 2 2 2 1 1 1 0 -0 -0 -1 -1 -1 -1 -1 -1 -1 -2 -2 -2 -2 -2 -2 -2 -3 -3 -3 -3 -3 -3 -3 -3 -3
4 4 4 4 4 4 4 3 3 3 3 2 2 1 1 1 1 0 0 -0 -1 -1 -1 -1 -1 -2 -2 -2 -2 -2 -2 -2 -3 -3 -3 -3 -3 -3 -4 -4 -4 -4 -4 -4
4 4 4 3 3 3 3 3 3 2 2 2 1 1 1 1 0 -0 -0 -1 -1 -1 -1 -2 -2 -2 -2 -2 -2 -3 -3 -3 -3 -3 -3 -4 -4 -4 -4 -4 -4 -4 -4 -4
3 3 3 3 3 2 2 2 2 2 1 1 1 1 0 -0 -0 -1 -1 -1 -1 -1 -2 -2 -2 -2 -3 -3 -3 -3 -3 -3 -4 -4 -4 -4 -4 -4 -5 -5 -5 -5 -5 -5
3 2 2 2 2 2 2 2 1 1 1 1 0 0 0 -0 -1 -1 -1 -1 -2 -2 -2 -2 -2 -3 -3 -3 -3 -4 -4 -4 -4 -4 -4 -5 -5 -5 -5 -5 -5 -5 -5 -5
2 2 2 1 1 1 1 1 1 0 0 -0 -0 -0 -1 -1 -1 -1 -2 -2 -2 -2 -2 -3 -3 -3 -3 -4 -4 -4 -4 -4 -4 -5 -5 -5 -5 -5 -6 -6 -6 -6 -6 -6
2 1 1 1 1 1 1 0 0 -0 -0 -1 -1 -1 -1 -1 -2 -2 -2 -2 -2 -3 -3 -3 -3 -4 -4 -4 -4 -4 -5 -5 -5 -5 -5 -6 -6 -6 -6 -6 -6 -6 -6 -6
1 1 1 0 0 0 0 -0 -0 -0 -1 -1 -1 -1 -2 -2 -2 -2 -3 -3 -3 -3 -3 -4 -4 -4 -4 -4 -5 -5 -5 -5 -5 -6 -6 -6 -6 -6 -6 -6 -6 -6 -7 -7
0 0 -0 -0 -0 -0 -0 -0 -1 -1 -1 -1 -2 -2 -2 -2 -3 -3 -3 -3 -3 -4 -4 -4 -4 -5 -5 -5 -5 -5 -5 -6 -6 -6 -6 -6 -6 -7 -7 -7 -7 -7 -7 -7
Wind_Speed
3 4 3 3 4 3 4 6 6 6 6 7 7 6 5 3 2 3 2 2 3 3 3 3 4 4 5 5 5 5 5 5 5 5 5 5 5 5 4 4 4 4 4 4
3 3 2 4 6 5 5 5 6 4 5 5 4 4 4 3 3 2 1 1 2 2 3 3 3 4 4 5 5 5 4 4 5 5 5 5 5 5 5 5 4 4 4 4
3 5 4 5 7 6 4 5 7 7 7 4 4 6 7 5 4 3 2 0 0 1 2 2 3 3 3 4 4 4 4 4 5 5 5 5 5 4 4 4 4 4 4 4
1 3 3 6 2 4 5 4 5 5 5 7 6 5 5 5 5 4 2 1 0 1 2 3 3 3 3 4 4 5 5 5 5 5 5 5 5 5 5 4 4 4 4 4
1 2 6 6 3 4 4 4 5 6 5 4 3 3 1 2 4 4 4 2 1 0 1 2 2 3 4 4 5 5 5 5 6 5 5 5 5 5 4 4 4 4 4 4
2 2 5 5 2 2 3 4 4 6 7 6 6 3 5 3 2 2 2 1 1 1 2 2 3 3 3 4 4 5 5 5 6 5 5 5 5 5 4 3 4 4 4 4
3 4 7 6 2 4 3 6 3 6 7 8 7 6 4 4 3 2 2 2 2 2 1 1 2 2 3 3 4 5 5 5 5 5 5 5 4 4 4 4 4 3 4 4
5 4 7 4 6 6 7 2 3 5 6 6 5 4 4 4 3 3 2 1 2 1 0 2 2 2 2 3 4 5 5 5 5 5 5 4 4 4 4 4 3 3 3 4
8 8 4 5 7 5 4 3 3 4 4 6 5 5 4 4 3 3 3 2 1 1 0 1 2 1 1 3 4 4 4 5 5 5 5 5 4 4 4 4 3 3 3 3
5 8 7 7 6 4 5 5 4 4 5 6 6 5 5 4 3 3 2 2 1 1 1 1 2 2 2 3 3 3 4 5 5 5 5 5 4 3 3 3 3 3 3 3
6 7 5 6 7 6 4 4 4 4 5 7 7 5 5 5 4 4 3 2 2 2 2 2 2 2 3 3 3 3 4 4 4 4 4 4 4 4 4 3 4 4 3 3
8 8 7 7 6 6 6 6 6 6 5 5 6 7 6 5 5 4 4 2 2 2 2 2 1 2 2 2 2 3 3 4 3 3 4 4 4 4 6 6 7 6 5 4
8 5 6 5 4 6 7 7 7 7 7 6 5 6 7 5 5 4 4 4 4 4 3 2 2 2 2 2 2 2 3 3 3 3 3 4 4 4 5 6 7 7 7 7
6 3 4 5 6 6 6 6 6 5 5 6 6 5 5 5 4 5 5 5 4 3 3 3 2 3 2 2 2 2 3 3 3 3 3 3 3 3 3 4 5 5 6 6
7 7 7 5 4 4 4 4 5 5 5 5 5 6 7 6 6 6 5 4 3 3 3 3 3 3 2 1 2 2 2 2 3 3 3 3 3 3 3 3 3 4 4 4
5 4 5 5 6 6 6 6 7 8 7 7 7 7 7 7 6 5 4 5 4 5 4 4 4 3 2 2 2 2 2 3 3 2 2 3 3 3 3 3 3 3 3 3
6 6 6 6 8 8 8 9 9 9 8 8 8 7 6 5 5 5 5 5 5 5 4 4 4 3 2 2 2 2 2 3 3 2 2 2 2 3 3 3 3 3 3 4
11 11 10 9 9 9 9 8 8 8 8 8 7 7 7 7 7 7 6 4 3 3 4 4 3 2 2 2 2 2 2 2 2 2 2 2 2 2 3 3 3 3 3 4
9 9 8 8 9 8 8 8 8 7 7 7 8 8 8 7 7 6 4 4 5 5 5 4 4 3 3 3 2 2 2 2 2 2 2 3 3 2 3 3 3 3 3 3
7 7 7 7 7 7 7 6 6 6 6 7 7 7 6 6 6 5 5 6 6 5 4 4 4 4 3 3 3 2 2 2 2 2 2 2 2 3 3 3 3 3 3 3
6 6 6 7 6 6 6 7 7 7 7 8 8 8 7 6 6 5 5 5 5 4 4 5 4 3 3 3 3 3 3 2 2 2 2 2 3 3 3 3 3 3 3 3
5 6 6 6 6 5 5 5 6 7 7 7 7 7 6 6 5 5 5 5 4 5 4 3 3 4 4 4 3 3 3 3 3 2 2 3 3 3 3 3 3 3 3 2
5 5 6 6 6 5 4 5 6 6 7 8 8 8 7 6 5 5 5 4 3 5 4 3 5 6 5 3 3 3 3 3 3 3 3 3 3 3 3 3 3 3 2 2
5 5 5 4 4 5 5 5 5 4 5 5 6 7 6 5 4 4 4 4 5 5 4 4 6 6 5 3 3 3 3 3 3 3 3 3 3 3 3 3 3 3 3 3
5 4 5 6 6 5 5 4 4 3 4 3 4 4 4 4 4 4 4 4 5 5 3 4 6 6 4 3 3 3 4 4 4 3 3 3 3 3 3 3 3 3 3 3
5 5 5 6 5 5 5 5 4 4 4 4 3 3 3 3 4 3 3 4 4 4 4 3 3 4 3 3 4 4 3 3 3 3 3 3 3 3 3 3 3 3 3 3
4 4 4 3 3 4 5 5 5 5 5 5 4 3 4 3 3 4 4 3 3 3 3 3 3 3 3 3 3 3 3 3 3 3 3 3 3 3 3 3 3 3 3 3
Wind_Direction
264 269 234 240 247 218 187 189 192 213 211 223 209 192 183 160 119 96 70 46 39 23 4 359 4 0 360 1 360 358 2 1 351 345 347 346 344 338 335 329 321 313 302 292
321 318 288 275 259 241 226 208 207 210 244 229 190 161 157 155 147 142 137 52 18 13 5 356 355 353 357 357 354 354 360 351 342 348 349 346 343 340 340 335 323 317 306 295
291 315 346 284 244 212 214 204 183 207 222 180 167 176 180 177 172 184 194 148 358 342 340 335 334 345 347 343 348 360 360 352 349 349 346 341 341 343 337 328 324 315 309 304
291 6 256 255 273 197 201 233 211 200 187 178 188 181 176 173 174 187 193 198 253 329 340 340 345 349 350 354 2 7 2 354 348 344 340 341 345 342 333 327 322 315 315 307
133 278 282 288 258 184 184 257 223 195 184 172 136 93 268 211 181 187 194 196 211 248 350 358 358 353 3 5 5 6 355 347 339 336 338 341 339 332 326 328 329 324 321 321
149 225 250 256 229 162 114 273 233 181 177 169 142 176 237 214 176 170 164 143 123 65 43 24 352 0 19 8 3 350 339 336 335 334 336 332 326 324 327 330 326 329 329 324
190 239 265 253 191 105 156 251 210 176 176 173 187 206 194 163 159 155 145 145 122 99 67 343 344 13 19 3 345 331 332 338 341 342 338 332 331 331 333 335 335 336 331 323
175 214 258 209 143 183 222 238 166 172 176 178 183 163 153 157 157 149 142 135 130 126 350 341 358 25 7 340 327 333 339 344 344 342 341 343 342 340 341 338 336 332 330 328
200 219 253 198 204 221 190 187 192 178 181 163 161 170 170 170 166 167 166 166 159 158 225 340 348 17 341 318 328 341 346 343 340 340 344 345 345 341 341 340 334 328 327 325
252 260 252 237 236 230 203 195 194 180 169 163 171 177 176 172 175 179 178 183 171 147 174 296 320 332 308 316 336 347 344 337 338 342 344 346 344 339 340 337 332 325 319 316
255 269 279 257 227 217 203 179 167 168 172 173 168 178 183 184 190 190 188 188 176 183 207 263 303 318 327 337 350 345 336 332 335 338 336 338 339 335 327 313 313 313 299 293
229 226 208 241 230 196 187 195 186 175 176 174 174 181 182 189 193 190 190 190 192 201 217 247 264 291 317 332 337 333 330 329 328 331 331 331 330 331 340 340 337 337 332 324
231 232 217 246 222 194 192 194 189 185 183 184 183 180 180 189 192 188 190 196 206 211 218 230 243 265 290 311 322 314 310 314 319 322 322 322 325 326 329 337 345 348 348 346
227 210 239 231 222 210 195 189 182 181 185 181 180 177 177 180 184 190 200 208 209 207 214 224 237 255 273 288 302 300 302 303 309 307 309 312 313 312 313 321 329 332 337 341
229 216 219 224 205 191 177 166 173 188 189 187 181 180 182 187 196 205 206 196 189 199 216 221 236 262 275 274 283 287 294 298 300 301 304 307 310 312 313 314 315 321 333 339
235 220 205 199 199 194 188 189 196 204 199 197 196 197 196 195 198 198 194 186 190 211 220 222 238 255 255 254 275 279 283 298 311 302 305 312 317 318 316 313 312 317 324 327
202 217 210 209 208 207 205 206 204 205 200 199 201 195 184 180 186 195 203 204 205 213 216 220 237 249 242 238 246 260 277 292 303 306 298 299 305 307 308 312 314 314 312 320
216 216 210 204 205 209 213 209 204 201 203 202 189 180 181 189 201 207 208 204 206 226 231 228 226 227 235 238 238 247 262 274 280 282 290 294 303 301 300 301 305 307 311 318
219 216 214 211 206 203 204 205 203 200 194 183 182 189 196 201 202 200 191 194 208 229 239 228 220 208 229 242 236 232 248 263 274 286 287 296 303 303 300 299 302 305 307 311
220 215 210 208 201 195 199 198 190 188 187 181 181 187 195 201 195 190 194 212 222 224 218 210 209 219 230 235 227 225 234 245 258 273 279 284 290 295 297 300 305 308 311 310
215 209 202 200 200 196 192 186 182 188 189 182 185 194 200 200 193 191 199 226 236 218 207 205 205 220 228 231 223 226 231 237 247 255 262 272 279 286 293 298 300 300 302 306
209 203 200 192 186 193 194 186 184 185 186 188 190 188 187 193 196 204 216 222 224 206 198 207 213 223 229 226 219 224 230 236 242 246 251 258 263 271 278 283 287 293 297 297
207 203 197 192 188 186 184 187 187 187 190 192 191 192 195 197 194 199 226 223 209 206 199 213 226 228 224 212 218 225 229 232 238 242 245 249 252 257 264 271 276 283 288 289
201 196 190 178 163 170 191 201 191 190 191 193 197 195 190 191 204 214 211 201 200 206 209 223 227 225 214 205 217 226 231 233 235 237 243 249 251 253 257 263 268 273 276 279
194 188 179 174 184 197 197 182 170 174 180 191 195 195 193 192 198 199 192 199 205 206 213 224 225 221 211 215 220 228 232 233 232 229 232 241 247 251 255 257 259 264 268 270
198 199 199 200 199 193 182 178 186 190 188 195 204 199 191 185 179 177 185 197 203 207 208 215 220 219 215 219 223 227 231 241 249 241 236 239 245 248 253 255 260 260 263 268
190 190 187 190 193 186 185 187 192 197 195 194 203 201 191 186 184 187 189 195 201 208 211 214 216 218 220 223 226 227 228 229 233 235 235 238 241 246 250 254 258 260 262 261
Height
1477 1474 1473 1472 1471 1470 1474 1476 1480 1475 1473 1470 1469 1468 1469 1470 1470 1470 1470 1469 1468 1468 1467 1465 1464 1463 1462 1460 1459 1457 1456 1454 1453 1452 1451 1450 1448 1447 1446 1445 1444 1444 1443 1442
1478 1474 1473 1471 1469 1469 1469 1470 1471 1471 1471 1465 1466 1467 1468 1469 1469 1469 1469 1469 1468 1467 1466 1464 1463 1462 1461 1459 1458 1456 1455 1453 1451 1450 1449 1447 1446 1445 1443 1442 1442 1441 1440 1438
1483 1478 1475 1474 1467 1466 1466 1464 1466 1468 1466 1465 1466 1466 1467 1467 1468 1468 1468 1468 1467 1466 1465 1464 1463 1461 1460 1459 1457 1455 1453 1452 1450 1448 1447 1445 1444 1442 1441 1439 1438 1437 1436 1434
1485 1482 1478 1468 1461 1461 1463 1461 1460 1460 1461 1462 1463 1464 1465 1466 1467 1467 1467 1467 1466 1465 1464 1463 1462 1461 1459 1457 1455 1453 1452 1450 1448 1447 1445 1443 1441 1440 1438 1436 1435 1434 1432 1430
1488 1485 1477 1465 1460 1460 1462 1461 1458 1459 1460 1461 1462 1464 1465 1465 1465 1466 1466 1465 1465 1464 1463 1462 1461 1460 1458 1456 1454 1452 1451 1449 1447 1445 1443 1441 1439 1438 1436 1434 1433 1431 1429 1427
1486 1482 1472 1461 1458 1457 1461 1461 1455 1455 1458 1460 1462 1466 1464 1463 1464 1464 1464 1464 1464 1463 1462 1461 1460 1459 1457 1455 1453 1452 1450 1448 1446 1444 1442 1440 1438 1436 1434 1432 1430 1428 1426 1425
1484 1483 1471 1459 1457 1458 1466 1459 1452 1453 1454 1457 1458 1459 1460 1461 1462 1462 1463 1463 1463 1462 1461 1460 1459 1458 1456 1454 1452 1451 1449 1447 1445 1442 1440 1438 1436 1434 1432 1430 1427 1425 1424 1423
1482 1481 1470 1455 1456 1459 1455 1450 1450 1451 1452 1454 1455 1456 1458 1459 1460 1460 1461 1461 1461 1460 1460 1459 1458 1456 1455 1453 1452 1450 1447 1445 1443 1441 1439 1436 1435 1432 1430 1428 1426 1424 1422 1421
1469 1463 1453 1451 1450 1450 1450 1449 1449 1450 1451 1452 1453 1455 1456 1457 1458 1458 1459 1459 1459 1458 1458 1458 1457 1455 1454 1452 1450 1448 1446 1444 1442 1439 1437 1435 1433 1431 1429 1427 1425 1422 1421 1419
1462 1453 1450 1448 1448 1448 1448 1448 1448 1449 1450 1451 1452 1453 1454 1455 1456 1456 1456 1456 1456 1456 1456 1455 1454 1454 1452 1451 1449 1447 1444 1442 1440 1438 1436 1434 1432 1430 1428 1425 1423 1421 1420 1418
1457 1450 1446 1444 1444 1445 1446 1447 1447 1448 1449 1450 1450 1451 1452 1453 1453 1454 1454 1454 1454 1454 1453 1453 1452 1451 1450 1448 1447 1445 1443 1441 1439 1437 1435 1433 1431 1429 1427 1424 1422 1420 1418 1417
1449 1442 1443 1440 1440 1442 1443 1443 1444 1445 1446 1447 1448 1449 1450 1450 1451 1451 1452 1452 1451 1451 1451 1451 1450 1449 1448 1446 1445 1443 1441 1439 1437 1435 1434 1432 1429 1427 1425 1423 1421 1419 1417 1415
1438 1437 1438 1437 1438 1439 1440 1441 1442 1443 1443 1444 1445 1447 1447 1448 1448 1449 1449 1449 1448 1448 1448 1448 1447 1446 1445 1444 1443 1441 1439 1438 1436 1434 1432 1430 1428 1425 1423 1421 1419 1417 1415 1414
1434 1435 1434 1434 1434 1435 1436 1437 1439 1440 1441 1441 1442 1443 1444 1445 1445 1445 1445 1445 1445 1445 1445 1445 1444 1443 1442 1441 1440 1439 1437 1435 1434 1432 1430 1428 1426 1424 1422 1419 1417 1415 1414 1412
1429 1429 1429 1429 1430 1431 1433 1434 1435 1435 1437 1438 1439 1439 1440 1440 1441 1441 1442 1442 1442 1442 1441 1441 1440 1440 1439 1438 1437 1435 1434 1433 1431 1429 1428 1426 1424 1422 1420 1418 1416 1414 1412 1410
1423 1424 1424 1425 1425 1426 1427 1429 1430 1430 1432 1433 1434 1435 1436 1436 1437 1437 1438 1438 1438 1437 1437 1437 1436 1436 1436 1434 1433 1432 1431 1430 1428 1427 1425 1423 1421 1420 1418 1416 1414 1412 1410 1409
1418 1417 1418 1419 1420 1421 1422 1423 1424 1425 1427 1428 1429 1430 1431 1432 1432 1433 1433 1433 1433 1433 1433 1433 1433 1432 1432 1431 1430 1429 1428 1426 1425 1424 1422 1421 1419 1417 1416 1414 1412 1411 1409 1408
1411 1411 1412 1413 1414 1415 1417 1418 1419 1421 1422 1423 1425 1426 1426 1427 1427 1428 1428 1429 1429 1429 1429 1429 1429 1428 1428 1427 1426 1425 1424 1423 1422 1421 1419 1418 1416 1415 1413 1412 1410 1409 1407 1406
1404 1406 1407 1409 1410 1411 1412 1413 1414 1415 1417 1418 1419 1420 1421 1422 1423 1423 1424 1424 1424 1424 1424 1424 1424 1424 1424 1423 1422 1421 1420 1419 1418 1417 1416 1415 1414 1412 1411 1409 1408 1406 1405 1404
1398 1400 1401 1402 1404 1406 1407 1408 1409 1410 1412 1414 1415 1416 1416 1417 1418 1418 1419 1419 1419 1419 1420 1420 1420 1420 1419 1419 1418 1417 1416 1415 1415 1414 1413 1412 1410 1409 1408 1407 1405 1404 1403 1401
1393 1394 1396 1397 1398 1400 1402 1403 1404 1405 1407 1408 1410 1411 1412 1413 1413 1414 1414 1414 1415 1415 1415 1415 1415 1415 1415 1414 1414 1413 1412 1411 1411 1410 1409 1408 1407 1406 1405 1403 1402 1401 1400 1398
1389 1390 1391 1392 1393 1395 1397 1398 1399 1401 1402 1403 1405 1406 1407 1408 1408 1409 1409 1410 1410 1410 1410 1410 1410 1410 1410 1410 1409 1409 1408 1407 1406 1406 1405 1404 1403 1402 1401 1400 1399 1398 1397 1396
1385 1386 1387 1388 1389 1390 1392 1394 1395 1396 1397 1398 1400 1401 1402 1403 1403 1404 1404 1405 1406 1406 1406 1406 1406 1406 1406 1405 1404 1404 1403 1403 1402 1401 1401 1400 1399 1398 1397 1396 1395 1394 1393 1392
1381 1382 1383 1384 1385 1386 1387 1389 1391 1392 1393 1394 1395 1396 1397 1398 1398 1399 1400 1401 1401 1401 1401 1401 1401 1401 1400 1400 1399 1399 1399 1398 1397 1397 1396 1395 1394 1394 1393 1392 1391 1391 1390 1389
1377 1378 1379 1380 1381 1382 1384 1385 1386 1388 1389 1389 1390 1391 1392 1393 1393 1394 1395 1396 1396 1396 1396 1396 1396 1396 1395 1395 1394 1394 1393 1393 1392 1392 1391 1391 1390 1389 1388 1388 1387 1386 1386 1385
1374 1374 1375 1376 1378 1379 1380 1381 1382 1383 1384 1385 1386 1386 1387 1388 1389 1389 1390 1390 1391 1391 1391 1391 1391 1391 1390 1390 1389 1389 1388 1388 1388 1387 1387 1386 1385 1385 1384 1384 1383 1382 1382 1381
1369 1370 1371 1372 1374 1375 1376 1377 1378 1379 1380 1381 1381 1382 1383 1383 1384 1384 1385 1385 1385 1385 1385 1386 1386 1385 1385 1385 1384 1384 1383 1383 1383 1383 1382 1382 1381 1381 1380 1380 1379 1378 1378 1377